Raystown Lake Weather Center

Moon Phase Calendar



Raystown Lake Water Level
Online Cameras

 


      

Current Conditions in McConnellstown
7/14/2024 12:06:55 PM

87°F
Feels Like 89
Clouds
Humidity
49%
Pressure
30.03"
Wind
4.6 mph (N)
Dew Point
65°F
UV Index
8/10 (Very High)
Visibility
6 mi

Hourly Forecast

Date & Time Sun, Jul 14
12:00 PM
Sun, Jul 14
1:00 PM
Sun, Jul 14
2:00 PM
Sun, Jul 14
3:00 PM
Sun, Jul 14
4:00 PM
Sun, Jul 14
5:00 PM
Sun, Jul 14
6:00 PM
Sun, Jul 14
7:00 PM
Sun, Jul 14
8:00 PM
Sun, Jul 14
9:00 PM
Sun, Jul 14
10:00 PM
Sun, Jul 14
11:00 PM
Mon, Jul 15
12:00 AM
Mon, Jul 15
1:00 AM
Mon, Jul 15
2:00 AM
Mon, Jul 15
3:00 AM
Mon, Jul 15
4:00 AM
Mon, Jul 15
5:00 AM
Mon, Jul 15
6:00 AM
Mon, Jul 15
7:00 AM
Mon, Jul 15
8:00 AM
Mon, Jul 15
9:00 AM
Mon, Jul 15
10:00 AM
Mon, Jul 15
11:00 AM
Mon, Jul 15
12:00 PM
Mon, Jul 15
1:00 PM
Mon, Jul 15
2:00 PM
Mon, Jul 15
3:00 PM
Mon, Jul 15
4:00 PM
Mon, Jul 15
5:00 PM
Mon, Jul 15
6:00 PM
Mon, Jul 15
7:00 PM
Mon, Jul 15
8:00 PM
Mon, Jul 15
9:00 PM
Mon, Jul 15
10:00 PM
Mon, Jul 15
11:00 PM
Tue, Jul 16
12:00 AM
Tue, Jul 16
1:00 AM
Tue, Jul 16
2:00 AM
Tue, Jul 16
3:00 AM
Tue, Jul 16
4:00 AM
Tue, Jul 16
5:00 AM
Tue, Jul 16
6:00 AM
Tue, Jul 16
7:00 AM
Tue, Jul 16
8:00 AM
Tue, Jul 16
9:00 AM
Tue, Jul 16
10:00 AM
Tue, Jul 16
11:00 AM
Condition
Clouds

Clouds

Clouds

Clouds

Clouds

Clouds

Clouds

Clouds

Clouds

Clouds

Clouds

Clouds

Clouds

Clouds

Rain

Rain

Rain

Clouds

Clouds

Clouds

Clouds

Clouds

Clouds

Clouds

Clouds

Clouds

Clouds

Clouds

Clouds

Rain

Rain

Rain

Clouds

Clouds

Clouds

Rain

Rain

Rain

Rain

Clouds

Clouds

Clouds

Clouds

Clouds

Clouds

Clouds

Clouds

Clouds
Temperature 87°F87°F88°F89°F90°F90°F88°F84°F78°F74°F73°F75°F72°F70°F68°F67°F66°F66°F66°F67°F73°F78°F82°F86°F90°F91°F92°F92°F87°F79°F70°F69°F69°F69°F69°F67°F66°F66°F67°F67°F68°F67°F67°F69°F71°F73°F78°F84°F
Feels Like 89°F89°F89°F88°F88°F87°F87°F85°F78°F74°F73°F75°F71°F69°F68°F67°F66°F66°F66°F68°F73°F78°F84°F87°F90°F92°F93°F93°F90°F79°F71°F70°F70°F70°F70°F68°F67°F67°F68°F68°F69°F68°F68°F70°F72°F74°F79°F87°F
Cloudiness 20%16%13%47%71%90%91%87%78%13%22%54%53%46%41%37%24%20%20%26%25%31%70%79%73%67%62%63%83%89%94%95%96%100%87%79%83%86%89%99%100%100%99%99%99%100%99%96%
Visibility 6 mi6 mi6 mi6 mi6 mi6 mi6 mi6 mi6 mi6 mi6 mi6 mi6 mi6 mi6 mi6 mi6 mi6 mi6 mi6 mi6 mi6 mi6 mi6 mi6 mi6 mi6 mi6 mi6 mi6 mi6 mi6 mi6 mi6 mi6 mi6 mi6 mi6 mi6 mi6 mi6 mi6 mi6 mi6 mi6 mi6 mi6 mi6 mi
Precipitation 0%0%0%0%0%0%0%0%0%0%0%0%0%0%20%78%69%58%49%38%28%0%0%0%0%0%0%0%0%83%100%100%80%0%0%100%100%100%100%1%0%0%0%0%0%0%0%0%
Humidity 49%46%41%35%29%27%33%47%57%57%57%53%61%65%74%79%81%82%84%84%74%65%58%50%40%38%37%40%51%71%97%95%95%93%91%95%96%97%96%96%96%96%97%95%92%88%69%56%
Dew Point 65°F64°F62°F58°F53°F52°F57°F62°F62°F59°F58°F58°F58°F58°F60°F61°F60°F61°F61°F63°F65°F66°F66°F66°F63°F63°F63°F65°F67°F69°F70°F68°F68°F68°F67°F66°F66°F66°F66°F67°F67°F67°F67°F68°F70°F70°F68°F67°F
Pressure 30.03"30.03"30.03"30"29.97"29.94"29.94"29.94"29.97"29.97"29.97"29.97"29.97"29.97"29.97"29.94"29.94"29.94"29.94"29.97"29.97"29.94"29.94"29.91"29.91"29.88"29.88"29.88"29.88"29.85"29.88"29.88"29.85"29.85"29.85"29.88"29.91"29.91"29.88"29.88"29.88"29.88"29.91"29.94"29.91"29.91"29.91"29.88"
Wind Speed 5.8 mph7.6 mph9.3 mph9.6 mph9.7 mph9.4 mph7 mph4.6 mph3.7 mph3.2 mph2.8 mph2.5 mph2.6 mph2.6 mph2.8 mph4.4 mph5.4 mph4.6 mph5 mph4.2 mph3.9 mph4.2 mph6.9 mph8.2 mph9.8 mph12 mph13 mph14.3 mph13.7 mph10 mph7.5 mph4 mph6 mph5.3 mph4.8 mph5.8 mph5.1 mph5.7 mph4.1 mph3.9 mph4.6 mph4.3 mph4.3 mph2.8 mph4 mph5.4 mph7.1 mph9.4 mph
Wind
Direction
282°
WNW
276°
W
277°
W
277°
W
276°
W
271°
W
273°
W
275°
W
265°
W
254°
WSW
263°
W
251°
WSW
265°
W
265°
W
245°
WSW
228°
SW
214°
SW
227°
SW
226°
SW
232°
SW
236°
SW
239°
WSW
262°
W
264°
W
270°
W
273°
W
276°
W
280°
W
301°
WNW
309°
NW
166°
SSE
216°
SW
220°
SW
232°
SW
213°
SSW
212°
SSW
215°
SW
202°
SSW
237°
WSW
249°
WSW
212°
SSW
182°
S
245°
WSW
268°
W
182°
S
198°
SSW
218°
SW
235°
SW

Daily Forecast

Date High Low Precip. Humidity
Today
Jul 14

Clouds
90 °F
65 °F
0%
46%
Monday
Jul 15

Rain
92 °F
66 °F
100%
38%
Tuesday
Jul 16

Rain
95 °F
66 °F
100%
36%
Wednesday
Jul 17

Rain
84 °F
65 °F
100%
62%
Thursday
Jul 18

Clouds
76 °F
59 °F
0%
38%
Friday
Jul 19

Clouds
81 °F
53 °F
0%
36%
Saturday
Jul 20

Clouds
83 °F
57 °F
0%
49%
Sunday
Jul 21

Rain
77 °F
65 °F
27%
85%
Monday
Jul 22

Rain
85 °F
63 °F
100%
54%
Tuesday
Jul 23

Rain
88 °F
63 °F
76%
43%
Wednesday
Jul 24

Clouds
86 °F
71 °F
0%
58%
Thursday
Jul 25

Clear
90 °F
65 °F
0%
22%
Friday
Jul 26

Clouds
91 °F
66 °F
0%
38%
Saturday
Jul 27

Rain
92 °F
68 °F
100%
38%
Sunday
Jul 28

Rain
77 °F
69 °F
100%
78%
Monday
Jul 29

Rain
82 °F
64 °F
100%
44%

Temperature 8-14 Day Outlook



Precipitation 8-14 Day Outlook






About Us
Contact Us
Site Map
Search Site
Advertise With Us
   
Raystown.USLakes.info
THE RAYSTOWN LAKE WEBSITE

Copyright 2024, Lakes Online
Privacy    |    Legal